www.pogodaiklimat.ru
ПОГОДА в Слиаче
Время
(UTC), дата
07 11.10
08 11.10
09 11.10
10 11.10
11 11.10
12 11.10
13 11.10
14 11.10
15 11.10
16 11.10
17 11.10
18 11.10
19 11.10
20 11.10
21 11.10
22 11.10
23 11.10
00 12.10
01 12.10
02 12.10
03 12.10
04 12.10
05 12.10
06 12.10
07 12.10
08 12.10
09 12.10
10 12.10
11 12.10
12 12.10
13 12.10
14 12.10
15 12.10
16 12.10
17 12.10
18 12.10
19 12.10
20 12.10
21 12.10
22 12.10
23 12.10
00 13.10
01 13.10
02 13.10
03 13.10
04 13.10
05 13.10
06 13.10
07 13.10
08 13.10
09 13.10
10 13.10
11 13.10
12 13.10
13 13.10
14 13.10
15 13.10
16 13.10
17 13.10
18 13.10
19 13.10
20 13.10
21 13.10
22 13.10
23 13.10
00 14.10
01 14.10
02 14.10
03 14.10
04 14.10
05 14.10
06 14.10
07 14.10
08 14.10
09 14.10
10 14.10
11 14.10
12 14.10
13 14.10
14 14.10
15 14.10
16 14.10
17 14.10
18 14.10
19 14.10
20 14.10
21 14.10
22 14.10
23 14.10
00 15.10
01 15.10
02 15.10
03 15.10
04 15.10
05 15.10
06 15.10
08 15.10
09 15.10
10 15.10
11 15.10
12 15.10
13 15.10
14 15.10
15 15.10
16 15.10
17 15.10
18 15.10
19 15.10
20 15.10
21 15.10
22 15.10
23 15.10
00 16.10
01 16.10
02 16.10
03 16.10
04 16.10
05 16.10
06 16.10
07 16.10
08 16.10
09 16.10
10 16.10
11 16.10
12 16.10
13 16.10
14 16.10
15 16.10
16 16.10
17 16.10
18 16.10
19 16.10
20 16.10
21 16.10
22 16.10
23 16.10
00 17.10
01 17.10
02 17.10
03 17.10
04 17.10
05 17.10
06 17.10
07 17.10
08 17.10
09 17.10
10 17.10
11 17.10
12 17.10
13 17.10
14 17.10
15 17.10
16 17.10
17 17.10
18 17.10
19 17.10
20 17.10
21 17.10
22 17.10
23 17.10
00 18.10
01 18.10
02 18.10
03 18.10
04 18.10
05 18.10
06 18.10
Ветер
(напр.,м/с)
Видим. Явления Облачность Т
(С)
Тd
(С)
f
(%)
Тe
(С)
Тes
(С)
Комфортность P
(гПа)
Po
(гПа)
Тmin
(С)
Tmax
(С)
R
(мм)
R24
(мм)
S
(см)
штиль 0 15 км в посл. час туман 4/3 90 м
[Sc Ac lent Ci fib]
+6.1 +5.7 97 +5 +6 тепло 1025.7 987.2
штиль 0 25 км 4/3 150 м
[Sc Ac lent Ci fib]
+8.8 +6.4 85 +8 +11 тепло 1025.8 987.7
нст 2 25 км {туман} 6/6 1170 м
[Sc Ac lent]
+12.0 +6.9 71 +11 +13 тепло 1025.4 987.7
25 км 6/5 870 м
[Cu Sc Ac lent Ci fib]
+12.8 +7.0 68 1025.1 987.5
ЮЗ 5 25 км 8/8 1140 м
[Cu Sc]
+14.8 +6.9 59 +13 +14 тепло 1024.4 987.1
ЮЗ 4 30 км {туман} 6/5 1200 м
[Cu Sc Cc]
+16.2 +7.7 57 +16 +17 тепло 1023.6 986.5
ЮЗ 5 30 км 6/4 1380 м
[Cu hum Ci sp]
+16.3 +6.2 51 +15 +17 тепло 1023.2 986.1
ЮЗ 4 30 км 6/1 1440 м
[Cu hum Ac lent Ci sp]
+16.2 +6.4 52 +16 +16 тепло 1022.4 985.4
нст 1 30 км 8/1 1500 м
[Cu Sc Ac lent Cs]
+15.6 +7.4 58 +16 +17 тепло 1022.2 985.1
30 км 6/1 1500 м
[Cu hum Ac lent Cs]
+13.1 +8.8 75 1022.5 985.1
штиль 0 30 км 6/0
[Ac und]
+10.6 +7.8 83 +10 +10 тепло 1022.9 985.1
нст 1 20 км 6/0
[Cc]
+9.9 +8.0 88 +9 +9 тепло 1023.2 985.3 +16.7
штиль 0 20 км 5/0
[Ac trans]
+8.2 +6.8 91 +7 +7 тепло 1023.8 985.7
15 км 4/0
[Ac trans Ci fib]
+7.3 +6.2 93 1024.0 985.7
штиль 0 10 км 4/0
[Ci sp]
+6.6 +5.8 95 +6 +6 тепло 1024.2 985.8
штиль 0 5000 м дымка 5/1 90 м
[St Ci fib]
+5.7 +5.0 95 +5 +5 тепло 1024.1 985.6
штиль 0 3000 м туман на расстоянии 5/3 60 м
[St Ci fib]
+5.0 +4.3 95 +4 +4 по сезону 1024.5 985.9
штиль 0 2500 м туман на расстоянии 3/1 60 м
[St Ci fib]
+4.6 +4.0 96 +3 +3 по сезону 1024.7 986.0
штиль 0 300 м туман 6/6 30 м
[St Ci fib]
+4.1 +3.5 96 +3 +3 по сезону 1024.6 985.9
штиль 0 300 м туман 5/4 30 м
[St Ci sp]
+3.6 +3.0 96 +2 +2 по сезону 1024.6 985.8
штиль 0 200 м туман 10/10 30 м
[St]
+3.0 +2.6 97 +2 +2 по сезону 1024.6 985.7
штиль 0 100 м туман 10/10 30 м
[St]
+3.2 +2.8 97 +2 +2 по сезону 1024.7 985.8
штиль 0 200 м туман 10/10 30 м
[St]
+3.5 +3.2 98 +2 +2 по сезону 1024.5 985.7
штиль 0 200 м туман 10/10 60 м
[St]
+3.5 +3.2 98 +2 +2 по сезону 1024.6 985.8 +2.8
штиль 0 300 м туман 10/10 60 м
[St]
+4.3 +4.0 98 +3 +3 по сезону 1024.9 986.2
штиль 0 600 м туман 9/9 60 м
[St]
+5.8 +5.5 98 +5 +5 тепло 1024.8 986.3
штиль 0 10 км в посл. час туман 6/1 90 м
[St Ac lent Ci fib]
+8.6 +8.2 97 +8 +12 тепло 1024.4 986.3
20 км 6/1 1000 м
[Cu hum Ac lent Ci sp]
+13.4 +8.0 70 1023.4 986.0
30 км 6/0
[Ci fib]
+15.9 +8.6 62 1022.4 985.3
нст 1 30 км {туман} 6/0
[Ci sp]
+17.0 +9.2 60 +18 +23 тепло 1021.4 984.5
30 км 5/0
[Ci sp]
+17.6 +9.5 59 1020.9 984.1
штиль 0 35 км 3/0
[Ac lent Ci fib]
+19.5 +9.7 53 +20 +23 тепло 1020.5 984.0
Ю 2 40 км 3/0
[Ac lent Ci fib]
+17.9 +9.0 56 +18 +19 тепло 1020.5 983.8
40 км 3/0
[Ac lent Ci fib]
+15.3 +9.4 68 1021.1 984.0
40 км 3/0
[Ac lent Ci fib]
+11.1 +8.5 84 1022.3 984.6
В 1 30 км 3/0
[Ac lent Ci fib]
+10.3 +8.4 88 +10 +10 тепло 1022.8 985.0 +19.5
СВ 2 30 км 3/0
[Ci fib]
+9.7 +8.3 91 +8 +8 тепло 1023.0 985.1
штиль 0 20 км 3/0
[Ci fib]
+8.8 +7.7 93 +8 +8 тепло 1023.3 985.3
В 1 15 км 3/0
[Ci fib]
+8.3 +7.5 95 +7 +7 тепло 1023.6 985.5
штиль 0 15 км 3/0
[Ci fib]
+7.4 +6.5 94 +6 +6 тепло 1023.6 985.4
ЮЗ 1 2000 м дымка 3/3 90 м
[St]
+5.9 +5.2 95 +5 +5 тепло 1023.8 985.4
штиль 0 800 м туман 5/5 30 м
[St]
+5.8 +5.4 97 +5 +5 тепло 1024.1 985.6
штиль 0 300 м туман 5/5 30 м
[St]
+5.5 +5.1 97 +4 +4 по сезону 1024.1 985.6
штиль 0 300 м туман 6/6 30 м
[St]
+5.5 +5.2 98 +4 +4 по сезону 1023.9 985.4
штиль 0 200 м туман 6/6 30 м
[St]
+5.2 +4.9 98 +4 +4 по сезону 1024.0 985.4
штиль 0 200 м туман 6/6 30 м
[St]
+5.0 +4.7 98 +4 +4 по сезону 1023.9 985.3
штиль 0 200 м туман 6/6 30 м
[St]
+4.8 +4.5 98 +4 +4 по сезону 1024.0 985.4
штиль 0 100 м туман 8/8 30 м
[St]
+4.9 +4.6 98 +4 +4 по сезону 1024.2 985.6 +4.6
штиль 0 1500 м туман на расстоянии 5/5 30 м
[St]
+5.9 +5.6 98 +5 +6 тепло 1024.7 986.2
20 км в посл. час туман 4/1 60 м
[St Ac lent Ci fib]
+8.7 +8.2 97 1024.5 986.4
нст 1 30 км {туман} 4/1 660 м
[Cu hum Ac lent Ci fib]
+13.6 +8.9 73 +14 +18 тепло 1023.5 986.1
40 км 5/4 1110 м
[Cu med, cong Ac trans Ci fib]
+17.0 +10.4 65 1022.8 985.9
40 км 5/4 1110 м
[Cu med, cong Ac trans Ci fib]
+18.0 +11.1 64 1022.2 985.4
нст 1 40 км {туман} 5/4 1080 м
[Cu med, cong Ac trans Ci fib]
+19.7 +11.2 58 +22 +26 комфорт 1021.5 985.0
35 км 4/4 1110 м
[Cu med, cong Ci fib]
+19.3 +11.1 59 1021.3 984.7
ЮВ 2 35 км 3/1 1050 м
[Cu med, cong Ac lent Ci fib]
+18.9 +10.2 57 +20 +22 тепло 1021.4 984.8
нст 2 35 км 3/0
[Ac lent Ci fib]
+18.1 +10.2 60 +19 +19 тепло 1021.6 984.9
35 км 4/0
[Ac lent Ci fib]
+16.0 +10.5 70 1022.1 985.1
С 2 30 км 4/0
[Ac lent Ci fib]
+12.3 +10.0 86 +11 +11 тепло 1023.2 985.7
штиль 0 30 км 3/0
[Ci fib]
+11.8 +10.0 89 +11 +11 тепло 1023.4 985.8 +19.8
штиль 0 1000 м туман на расстоянии 1/0
[Ci fib]
+10.6 +9.5 93 +10 +10 тепло 1023.7 985.9
штиль 0 1000 м туман на расстоянии 1/0
[Ci fib]
+9.1 +8.0 93 +8 +8 тепло 1024.2 986.2
штиль 0 500 м туман 1/1 120 м
[St Ci fib]
+8.5 +7.7 95 +8 +8 тепло 1024.4 986.3
штиль 0 300 м туман 4/4 30 м
[St Ci fib]
+7.9 +7.2 95 +7 +7 тепло 1024.3 986.1
штиль 0 100 м туман 6/6 30 м
[St]
+7.8 +7.2 96 +7 +7 тепло 1024.2 986.0
штиль 0 100 м туман 8/8 30 м
[St]
+7.1 +6.6 97 +6 +6 тепло 1024.2 985.9
штиль 0 100 м туман 8/8 30 м
[St]
+7.2 +6.9 98 +6 +6 тепло 1023.9 985.6
штиль 0 100 м туман 9/9 30 м
[St]
+7.0 +6.7 98 +6 +6 тепло 1023.9 985.6
штиль 0 100 м туман 9/9 30 м
[St]
+6.7 +6.4 98 +6 +6 тепло 1024.0 985.7
штиль 0 100 м туман 10/10 30 м
[St]
+6.7 +6.4 98 +6 +6 тепло 1023.8 985.5
В 1 100 м туман 10/10 30 м
[St]
+6.3 +6.0 98 +5 +5 тепло 1023.9 985.5
штиль 0 100 м туман ?/? +6.3 +6.0 98 +5 +5 тепло 1024.3 985.9 +6.1
штиль 0 100 м туман ?/? +6.9 +6.6 98 +6 +6 тепло 1024.4 986.1
штиль 0 300 м туман 10/10 60 м
[St]
+8.0 +7.7 98 +7 +7 тепло 1024.3 986.1
штиль 0 1600 м в посл. час туман 8/8 90 м
[St]
+10.2 +9.9 98 +9 +11 тепло 1023.7 985.9
20 км 1/1 800 м
[Cu hum Ac trans]
+14.3 +11.6 84 1022.6 985.4
штиль 0 40 км {туман} 1/1 1200 м
[Cu hum]
+17.7 +11.5 67 +18 +25 тепло 1021.4 984.6
штиль 0 40 км {туман} ясно +20.5 +12.2 59 +22 +29 комфорт 1020.2 983.8
штиль 0 40 км ясно +21.3 +12.2 56 +23 +28 комфорт 1019.7 983.4
40 км ясно +21.2 +12.1 56 1019.2 983.0
штиль 0 40 км ясно +20.7 +12.7 60 +23 +23 комфорт 1018.9 982.6
С 1 40 км 1/0
[Ci fib]
+16.3 +12.8 80 +17 +17 тепло 1019.6 982.7
штиль 0 40 км 1/0
[Ci sp]
+13.9 +11.6 86 +13 +13 тепло 1020.4 983.2
нст 1 30 км 1/0
[Ci sp]
+13.4 +11.4 88 +14 +14 тепло 1020.4 983.1 +21.7
30 км 1/0
[Ci sp]
+12.2 +10.9 92 1020.5 983.1
штиль 0 20 км 1/0
[Ci sp]
+10.5 +9.6 94 +10 +10 тепло 1020.9 983.2
штиль 0 4000 м дымка 1/0
[Ci sp]
+1.0 +0.3 95 -0 -0 по сезону 1022.3 983.2
штиль 0 400 м туман 6/6 60 м
[St Ci sp]
+8.7 +8.1 96 +8 +8 тепло 1020.7 982.8
штиль 0 300 м туман 6/6 30 м
[St]
+7.6 +7.2 97 +7 +7 тепло 1020.8 982.7
штиль 0 200 м туман 6/6 30 м
[St]
+7.6 +7.2 97 +7 +7 тепло 1020.7 982.6
штиль 0 100 м туман 6/6 30 м
[St]
+7.2 +6.9 98 +6 +6 тепло 1020.3 982.2
штиль 0 100 м туман 6/6 30 м
[St]
+7.4 +7.1 98 +6 +6 тепло 1020.1 982.0
нст 1 200 м туман 8/6 30 м
[St Ac trans]
+7.4 +7.1 98 +6 +6 тепло 1019.7 981.6
штиль 0 200 м туман 8/6 30 м
[St Ac trans]
+6.9 +6.6 98 +6 +6 тепло 1019.4 981.3
штиль 0 100 м туман 8/8 30 м
[St]
+6.9 +6.6 98 +6 +6 тепло 1019.1 981.0
штиль 0 200 м туман 9/9 30 м
[St Ci fib]
+6.7 +6.4 98 +6 +6 тепло 1019.4 981.2 +6.6
600 м туман 5/5 60 м
[St Ci fib]
+9.3 +9.0 98 1018.7 980.9
нст 1 20 км в посл. час туман 4/1 60 м
[St Ci fib]
+14.0 +12.6 91 +14 +19 тепло 1017.5 980.4
штиль 0 25 км 3/0
[Ci sp]
+17.4 +12.3 72 +17 +24 тепло 1016.5 979.9
25 км 3/0
[Ci sp]
+20.6 +12.1 58 1015.3 979.1
нст 1 35 км {туман} 3/0
[Ci sp]
+22.3 +12.0 52 +25 +30 комфорт 1014.4 978.5
35 км 3/1 1300 м
[Cu hum Ac lent Ci sp]
+22.4 +11.8 51 1013.5 977.6
ЮВ 3 30 км 1/0
[Ac lent Ci sp]
+21.7 +11.7 53 +24 +25 комфорт 1013.1 977.1
ЮВ 3 30 км 1/0
[Ac trans Ci fib]
+20.6 +11.8 57 +23 +23 комфорт 1012.8 976.7
30 км 1/0
[Ac trans Ci fib]
+18.8 +11.6 63 1013.1 976.8
30 км 1/0
[Ac trans]
+15.2 +11.4 78 1013.8 977.0
СЗ 2 25 км 1/0
[Ac trans Ci fib]
+13.4 +10.6 83 +13 +13 тепло 1014.4 977.3 +22.8
12 км 1/0
[Ci fib]
+13.1 +10.6 85 1014.6 977.5
12 км 1/0
[Ci fib]
+12.7 +10.8 88 1014.7 977.5
нст 1 8000 м дымка 1/0
[Ac trans Ci fib]
+11.4 +10.2 92 +11 +11 тепло 1014.8 977.5
СВ 1 4000 м дымка 1/0
[Ci fib]
+10.4 +9.5 94 +10 +10 тепло 1014.9 977.4
штиль 0 300 м туман местами 1/1 30 м
[St Ci fib]
+10.0 +9.2 95 +9 +9 тепло 1014.9 977.4
штиль 0 300 м туман 4/4 30 м
[St Ci fib]
+8.4 +7.8 96 +7 +7 тепло 1015.2 977.4
штиль 0 400 м туман 4/4 30 м
[St]
+7.9 +7.3 96 +7 +7 тепло 1015.2 977.4
штиль 0 200 м туман 4/4 60 м
[St]
+6.9 +6.3 96 +6 +6 тепло 1015.5 977.5
штиль 0 100 м туман 9/9 30 м
[St]
+6.0 +5.4 96 +5 +5 тепло 1015.7 977.6
100 м туман 6/6 30 м
[St]
+5.7 +5.3 97 1015.9 977.7
штиль 0 100 м туман 6/6 30 м
[St]
+6.2 +5.9 98 +5 +5 тепло 1015.8 977.7
штиль 0 100 м туман 9/9 30 м
[St]
+6.4 +6.1 98 +5 +5 тепло 1016.5 978.4 +5.5
штиль 0 2000 м в посл. час туман 9/9 30 м
[Sc]
+8.2 +7.9 98 +7 +7 тепло 1016.6 978.8
штиль 0 12 км 9/9 300 м
[Sc]
+10.5 +9.7 95 +10 +10 тепло 1016.4 978.9
штиль 0 15 км {туман} 9/9 1260 м
[Sc]
+12.7 +9.9 83 +12 +13 тепло 1016.3 979.1
СЗ 1 20 км 9/9 1020 м
[Cu Sc]
+14.9 +11.1 78 +15 +16 тепло 1015.9 979.0
штиль 0 20 км 10/10 800 м
[Sc]
+15.1 +10.5 74 +15 +15 тепло 1016.1 979.2
ЮЗ 3 15 км {туман} 10/10 720 м
[Sc]
+15.7 +11.3 75 +15 +15 тепло 1016.2 979.4
ЮЗ 2 15 км в посл. час дождь 10/10 1000 м
[Sc]
+15.6 +11.8 78 +16 +16 тепло 1016.2 979.4
Ю 2 15 км 10/10 930 м
[Sc]
+15.4 +11.6 78 +15 +15 тепло 1016.5 979.6
нст 2 20 км 9/4 1020 м
[Sc Ac As]
+15.3 +11.3 77 +15 +15 тепло 1016.6 979.7
20 км в посл. час ливневой дождь 8/1 1140 м
[Sc Ac As]
+14.4 +11.9 85 1016.9 979.9
штиль 0 20 км 3/3 1110 м
[Sc Ac trans]
+12.1 +11.2 94 +11 +11 тепло 1017.7 980.4
нст 1 10 км {ливн. осадки, дождь} 3/3 600 м
[Sc]
+10.7 +10.1 96 +10 +10 тепло 1018.4 980.8 +16.0 0.2
6000 м дымка 1/1 1000 м
[Sc]
+9.6 +9.0 96 1018.8 981.1
СЗ 1 3000 м дымка {туман} 1/1 90 м
[St]
+8.3 +7.8 97 +7 +7 тепло 1019.5 981.6
СВ 1 100 м туман 10/10 60 м
[St]
+8.4 +8.0 97 +7 +7 тепло 1019.5 981.6
штиль 0 400 м туман 9/9 60 м
[St]
+8.1 +7.8 98 +7 +7 тепло 1019.8 981.8
штиль 0 200 м туман 9/9 30 м
[St]
+7.9 +7.6 98 +7 +7 тепло 1020.2 982.2
С 1 200 м туман 10/10 60 м
[St]
+7.5 +7.2 98 +6 +6 тепло 1020.6 982.5
300 м туман 10/10 90 м
[St]
+7.4 +7.1 98 1020.6 982.5
300 м туман 10/10 60 м
[St]
+7.5 +7.2 98 1020.7 982.6
нст 1 2500 м в посл. час туман 10/10 90 м
[St]
+7.1 +6.8 98 +6 +6 тепло 1020.8 982.6
СЗ 2 3300 м дымка 10/10 90 м
[St]
+5.7 +5.4 98 +3 +3 по сезону 1021.1 982.7
штиль 0 3500 м дымка 10/10 60 м
[St]
+6.3 +6.0 98 +5 +5 тепло 1021.0 982.7
нст 1 3000 м дымка {туман} 9/9 90 м
[St]
+6.9 +6.6 98 +6 +6 тепло 1021.3 983.1 +5.7 0.1
штиль 0 5000 м дымка 5/5 90 м
[St]
+7.0 +6.6 97 +6 +7 тепло 1021.6 983.4
9000 м дымка 5/5 180 м
[St]
+8.5 +7.4 93 1021.7 983.7
нст 1 15 км 4/4 240 м
[St]
+10.0 +7.2 83 +10 +13 тепло 1021.6 983.8
20 км 1/1 240 м
[St]
+12.0 +8.3 78 1021.1 983.6
30 км ясно +13.5 +7.9 69 1020.4 983.1
штиль 0 40 км ясно +16.4 +7.6 56 +16 +23 тепло 1019.3 982.4
40 км 1/0
[Ci fib]
+18.8 +8.8 52 1018.5 981.9
штиль 0 40 км 1/0
[Ci fib]
+19.4 +8.4 49 +20 +22 тепло 1018.0 981.5
штиль 0 40 км 1/0
[Ci fib]
+18.3 +8.8 54 +19 +19 тепло 1017.9 981.3
40 км 3/0
[Ci sp]
+13.8 +10.0 78 1018.6 981.4
30 км 3/0
[Ci sp]
+12.2 +9.6 84 1019.0 981.6
нст 1 20 км 5/5 1500 м
[Sc Ci fib]
+11.6 +9.3 86 +11 +11 тепло 1019.2 981.7 +19.6
С 2 15 км 4/3 1230 м
[Sc Ac lent Ci fib]
+11.8 +9.2 84 +11 +11 тепло 1019.0 981.6
штиль 0 13 км 8/8 1300 м
[Sc]
+11.1 +9.0 87 +10 +10 тепло 1019.6 982.0
штиль 0 11 км 8/8 1440 м
[Sc]
+11.1 +9.0 87 +10 +10 тепло 1019.4 981.8
штиль 0 12 км 8/8 1200 м
[Sc]
+10.9 +9.3 90 +10 +10 тепло 1019.2 981.6
штиль 0 11 км 8/8 1200 м
[Sc]
+10.8 +9.2 90 +10 +10 тепло 1018.9 981.3
штиль 0 10 км 3/3 1440 м
[Sc]
+10.3 +9.1 92 +10 +10 тепло 1018.9 981.3
штиль 0 1000 м туман на расстоянии 4/4 90 м
[Sc]
+9.3 +8.4 94 +8 +8 тепло 1018.9 981.1
штиль 0 5000 м туман на расстоянии 3/3 1080 м
[Sc]
+8.5 +7.7 95 +8 +8 тепло 1018.9 981.0
штиль 0 1600 м туман на расстоянии 5/5 60 м
[Sc]
+7.7 +7.1 96 +7 +7 тепло 1019.0 981.0
штиль 0 400 м туман 8/8 60 м
[Sc]
+7.6 +7.0 96 +7 +7 тепло 1019.0 981.0
штиль 0 200 м туман 8/8 30 м
[St]
+7.0 +6.6 97 +6 +6 тепло 1018.9 980.8
штиль 0 200 м туман 9/9 30 м
[St]
+6.7 +6.2 97 +6 +6 тепло 1019.4 981.2 +6.3
Местоположение метеостанции Слиач (Словакия): широта 48.65 долгота 19.15 высота над уровнем моря 315 м.
В архиве по умолчанию представлена погода в Слиаче за последнюю неделю. Архивные данные за месяц целиком и за предыдущие месяцы, начиная с января 2011 года, Вы можете получить, выбрав интересующий диапазон дат из раскрывающегося списка и нажав кнопку "Найти!".
*Определитесь, кто Вы:
Внимание! Время в таблицах - всемирное. Для получения местного времени необходимо прибавить поправку, которая равна 1 ч.
Смотрите также архив погоды в соседних городах и на ближайших метеорологических станциях:
Партнеры нашего сайта:      
Пояснения к столбцам:
  • Ветер - указаны скорость ветра в м/с - средняя за 10 мин, порывы в срок и между сроками (в фигурных скобках) и направление, откуда дует ветер: С - северный,
  • СВ - северо-восточный, В - восточный, ЮВ - юго-восточный, Ю - южный, ЮЗ - юго-западный, З - западный, СЗ - северо-западный.
  • Видимость - горизонтальная дальность видимости в метрах или километрах. При видимости от 1 до 10 км при отсутствии осадков обычно наблюдается дымка, при ухудшении видимости до 1 км и менее - туман. В сухую погоду видимость может ухудшаться дымом, пылью или мглою.
  • Явления - указаны атмосферные явления, наблюдавшиеся в срок или в последний час перед сроком; фигурными скобками обозначены явления, наблюдавшиеся между сроками (за 1-3 часа до срока); квадратными скобками обозначены град или гололедные отложения с указанием их диаметра в мм.
  • Облачность - указаны через наклонную черту общая и нижняя облачность в баллах и высота нижней границы облаков в метрах; квадратными скобками обозначены формы облаков: Ci - перистые, Cs - перисто-слоистые, Cc - перисто-кучевые, Ac - высококучевые, As - высокослоистые, Sc - слоисто-кучевые, Ns - слоисто-дождевые, Cu - кучевые, Cb - кучево-дождевые. Подробнее классификацию облаков см. в Атласе облаков (PDF).
  • T - Температура воздуха - температура, измеренная на высоте 2 м над землей.
  • Td - Температура точки росы - температура, при понижении до которой содержащийся в воздухе водяной пар достигнет насыщения.
  • f - Относительная влажность воздуха - влажноcть воздуха, измеренная на высоте 2 м над землей.
  • Te - Эффективная температура - температура, которую ощущает одетый по сезону человек в тени. Характеристика душности погоды. При расчете учитывается влияние влажности воздуха и скорости ветра на теплоощущения человека.
  • Tes - Эффективная температура на солнце - температура, которую ощущает человек, с поправкой на солнечный нагрев. Характеристика знойности погоды. Зависит от высоты солнца над горизонтом, облачности и скорости ветра. Ночью, в пасмурную погоду, а также при ветре 12 м/с и более поправка равна нулю.
  • P - Атмосферное давление - приведенное к уровню моря атмосферное давление.
  • Po - Атмосферное давление - измеренное на уровне метеостанции атмосферное давление.
  • Tmin - Минимальная температура - минимум температуры воздуха на высоте 2 м над землей.
  • Tmax - Максимальная температура - максимум температуры воздуха на высоте 2 м над землей.
  • R - Количество осадков - Количество выпавших осадков за период времени, мм. При наведении курсора мыши на число - период времени, за который выпало указанное количество осадков.
  • R24 - Количество осадков - Количество выпавших осадков за 24 часа, мм.
  • S - Снежный покров - Высота снежного покрова, см. При наведении курсора мыши на число - состояние снежного покрова и степень покрытия местности в баллах.